FW7881 Weather Reports


time (UTC)temp
C
wind
direction
speed
KPH
gust
KPH
rain 1hr
cm
rain 24hr
cm
rain mn
cm
humidity
%
barometer
mb
20260510024555 11 0 0.0 0.0 0.00 0.00 0.00 40 1014.1
20260510023052 11 0 0.0 4.8 0.00 0.00 0.00 39 1013.7
20260510021552 11 0 0.0 0.0 0.00 0.00 0.00 39 1013.2
20260510020050 11 0 0.0 1.6 0.00 0.00 0.00 37 1012.9
20260510014550 12 0 0.0 1.6 0.00 0.00 0.00 37 1012.6
20260510013052 12 0 0.0 8.0 0.00 0.00 0.00 35 1012.5
20260510011549 12 0 0.0 11.3 0.00 0.00 0.00 35 1012.0
20260510010050 13 279 0.0 11.3 0.00 0.00 0.00 34 1011.9
20260510004551 13 0 0.0 14.5 0.00 0.00 0.00 34 1011.6
20260510003057 13 0 0.0 11.3 0.00 0.00 0.00 32 1011.6
20260510001552 14 1 0.0 19.3 0.00 0.00 0.00 31 1011.5
20260510000048 14 326 6.4 20.9 0.00 0.00 0.00 31 1011.3
20260509234601 14 11 3.2 16.1 0.00 0.00 0.00 31 1011.1
20260509233055 15 312 3.2 12.9 0.00 0.00 0.00 31 1010.9
20260509231608 15 0 0.0 19.3 0.00 0.00 0.00 31 1010.7
20260509224548 15 309 1.6 17.7 0.00 0.00 0.00 30 1010.3
20260509223051 15 297 1.6 16.1 0.00 0.00 0.00 30 1010.3
20260509221551 15 338 3.2 20.9 0.00 0.00 0.00 30 1010.2
20260509220047 15 291 1.6 19.3 0.00 0.00 0.00 32 1010.0
20260509214548 15 341 4.8 17.7 0.00 0.00 0.00 32 1010.0
20260509213049 15 274 4.8 24.1 0.00 0.00 0.00 31 1009.8
20260509211552 15 326 1.6 14.5 0.00 0.00 0.00 32 1009.8
20260509210058 15 0 1.6 16.1 0.00 0.00 0.00 32 1009.7
20260509204540 15 248 0.0 14.5 0.00 0.00 0.00 31 1009.5
20260509203050 15 291 3.2 20.9 0.00 0.00 0.00 32 1009.5
20260509201557 15 323 4.8 17.7 0.00 0.00 0.00 33 1009.4
20260509200054 15 0 1.6 16.1 0.00 0.00 0.00 33 1009.4
20260509194547 15 257 3.2 14.5 0.00 0.00 0.00 33 1009.3
20260509193047 14 334 4.8 16.1 0.00 0.00 0.00 34 1009.2
20260509191552 14 0 4.8 24.1 0.00 0.00 0.00 34 1009.0
20260509190052 14 0 1.6 24.1 0.00 0.00 0.00 36 1009.0
20260509184552 14 0 3.2 33.8 0.00 0.00 0.00 41 1008.9
20260509183048 13 274 1.6 22.5 0.00 0.00 0.00 39 1008.8
20260509181549 14 343 3.2 17.7 0.00 0.00 0.00 37 1008.7
20260509180054 14 0 0.0 17.7 0.00 0.00 0.00 40 1008.6
20260509174540 13 38 4.8 20.9 0.00 0.00 0.00 37 1008.5
20260509173040 13 279 8.0 22.5 0.00 0.00 0.00 39 1008.5
20260509171549 13 279 8.0 27.4 0.00 0.00 0.00 42 1008.3
20260509170059 13 47 4.8 19.3 0.00 0.00 0.00 40 1008.3
20260509164547 13 285 6.4 27.4 0.00 0.00 0.00 40 1008.0
20260509163059 13 309 8.0 29.0 0.00 0.00 0.00 37 1007.9
20260509161553 13 300 3.2 17.7 0.00 0.00 0.00 41 1007.8
20260509160047 13 0 3.2 17.7 0.00 0.00 0.00 43 1007.5
20260509154543 13 4 3.2 17.7 0.00 0.00 0.00 46 1007.6
20260509153046 13 258 1.6 12.9 0.00 0.00 0.00 48 1007.3
20260509151554 12 240 4.8 19.3 0.00 0.00 0.00 47 1007.1
20260509150050 12 10 0.0 11.3 0.00 0.00 0.00 51 1006.9
20260509144556 11 0 1.6 16.1 0.00 0.00 0.00 59 1006.8
20260509143049 11 342 1.6 14.5 0.00 0.00 0.00 59 1006.7
20260509141546 11 0 6.4 32.2 0.00 0.00 0.00 62 1006.2
20260509140045 11 297 3.2 20.9 0.00 0.00 0.00 66 1005.9
20260509134542 11 0 3.2 19.3 0.00 0.00 0.00 72 1005.6
20260509133059 10 320 4.8 24.1 0.00 0.00 0.00 71 1005.5
20260509131548 11 22 0.0 12.9 0.00 0.00 0.00 70 1005.2
20260509130057 10 319 3.2 17.7 0.00 0.00 0.00 73 1005.1
20260509124554 10 339 3.2 16.1 0.00 0.00 0.00 75 1004.9
20260509123101 10 331 4.8 22.5 0.00 0.00 0.00 75 1004.7
20260509121559 10 0 0.0 12.9 0.00 0.00 0.00 76 1004.4
20260509120048 11 0 3.2 14.5 0.00 0.00 0.00 76 1004.2
20260509114558 10 199 0.0 8.0 0.00 0.00 0.00 76 1003.8
20260509113047 10 0 0.0 0.0 0.00 0.00 0.00 75 1003.5
20260509111546 10 0 0.0 0.0 0.00 0.00 0.00 74 1003.3
20260509110050 10 0 0.0 1.6 0.00 0.00 0.00 74 1002.9
20260509104547 10 0 0.0 0.0 0.00 0.00 0.00 71 1002.6
20260509103048 11 0 0.0 0.0 0.00 0.00 0.00 68 1002.9
20260509101551 11 0 0.0 0.0 0.00 0.00 0.00 63 1002.4
20260509100051 11 0 0.0 0.0 0.00 0.00 0.00 62 1002.7
20260509094552 11 0 0.0 0.0 0.00 0.00 0.00 60 1003.1
20260509093053 11 0 0.0 8.0 0.00 0.00 0.00 58 1002.9
20260509091556 11 4 0.0 9.7 0.00 0.00 0.00 55 1002.8
20260509084550 11 0 0.0 1.6 0.00 0.00 0.00 53 1002.7
20260509083053 11 0 0.0 8.0 0.00 0.00 0.00 53 1002.7
20260509081547 10 323 0.0 0.0 0.00 0.00 0.00 55 1002.4
20260509080106 10 0 0.0 0.0 0.00 0.00 0.00 55 1001.6
20260509074550 10 0 0.0 0.0 0.00 0.00 0.00 53 1001.6
20260509073100 10 0 0.0 0.0 0.00 0.00 0.00 51 1001.5
20260509071549 10 0 0.0 0.0 0.00 0.00 0.00 54 1001.8
20260509070100 10 0 0.0 0.0 0.00 0.00 0.00 53 1001.9
20260509064549 10 0 0.0 0.0 0.00 0.00 0.00 57 1002.1
20260509063103 10 0 0.0 0.0 0.00 0.00 0.00 54 1002.3
20260509061549 11 0 0.0 0.0 0.00 0.00 0.00 50 1002.1
20260509060053 11 0 0.0 0.0 0.00 0.00 0.00 49 1002.2
20260509054552 11 0 0.0 0.0 0.00 0.00 0.00 50 1002.4
20260509053048 11 0 0.0 0.0 0.00 0.00 0.00 46 1002.7
20260509051547 12 0 0.0 0.0 0.00 0.00 0.00 44 1002.8
20260509050057 12 0 0.0 0.0 0.00 0.00 0.00 43 1003.1
20260509044544 13 0 0.0 0.0 0.00 0.00 0.00 40 1003.1
20260509043048 13 0 0.0 0.0 0.00 0.00 0.00 39 1003.2
20260509041550 13 0 0.0 0.0 0.00 0.00 0.00 37 1003.3
20260509040052 14 0 0.0 0.0 0.00 0.00 0.00 36 1003.2
20260509034547 15 0 0.0 3.2 0.00 0.00 0.00 34 1003.3
20260509033103 15 0 1.6 9.7 0.00 0.00 0.00 34 1003.2
20260509031549 16 0 0.0 9.7 0.00 0.00 0.00 35 1003.0
20260509030050 16 0 1.6 9.7 0.00 0.00 0.00 33 1002.8